Location: Newark
(25.4617°S, 30.9297°E)
Time: 13:29:02
(UTC+00:00)

Hubble Space Telescope - Visible Passes

Search period start: 22 October 2019 00:00
Search period end: 01 November 2019 00:00
Orbit: 536 x 540 km, 28.5° (Epoch: 21 October)

Date Brightness Start Highest point End Pass type
(mag) Time Alt. Az. Time Alt. Az. Time Alt. Az.
22 Oct 1.6 17:55:21 10° WNW 17:58:17 43° NW 17:58:17 43° NW visible
23 Oct 0.6 17:44:45 10° WNW 17:48:51 82° N 17:48:51 82° N visible
24 Oct 0.7 17:34:11 10° WNW 17:38:22 84° SSW 17:39:17 53° ESE visible
25 Oct 0.9 17:23:40 10° W 17:27:50 73° S 17:29:38 32° ESE visible
26 Oct 1.0 17:13:09 10° W 17:17:18 66° S 17:19:52 22° ESE visible
26 Oct 3.8 18:54:35 10° WSW 18:55:13 14° WSW 18:55:13 14° WSW visible
27 Oct 1.2 17:02:38 10° W 17:06:47 60° S 17:10:01 16° ESE visible
27 Oct 3.4 18:44:03 10° WSW 18:45:21 19° WSW 18:45:21 19° WSW visible
28 Oct 1.3 16:52:08 10° W 16:56:16 57° S 17:00:05 12° ESE visible
28 Oct 2.9 18:33:30 10° WSW 18:35:26 26° WSW 18:35:26 26° WSW visible
29 Oct 1.3 16:41:38 10° W 16:45:45 55° S 16:49:51 10° ESE visible
29 Oct 2.3 18:22:57 10° WSW 18:25:28 35° WSW 18:25:28 35° WSW visible
30 Oct 1.3 16:31:08 10° WSW 16:35:14 55° S 16:39:20 10° E visible
30 Oct 1.7 18:12:23 10° WSW 18:15:28 48° WSW 18:15:28 48° WSW visible
31 Oct 1.1 18:01:51 10° WSW 18:05:28 64° W 18:05:28 64° W visible
